SWR282 LSZH-FAOR

Flight info

Callsign SWR282
Flight time N/A
Altitude 35000
Route VEBIT T53 GERSA N850 SOSON DCT ODINA DCT EVROG DCT OLBEK DCT OSMAR UM733 TUC/N0462F360 UW411 EBA UG362 BARKA/N0461F370 UM2 DJA UB730 DIR UG727 MIU UM998 LUSKA/N0460F390 UM998 IBRIT UT941 RUDAS UQ25 ITROL UQ44 AVAGO AVAGO1D
Aircraft A343/H-SDE2E3FGHIJ4J5M1RWXY/LB1D1

Departure

Time 2026-05-08 07:03
Airport Zürich Airport (LSZH)

Arrival

Time N/A
Airport O.R. Tambo International Airport (FAOR)
Time Latitude Longitude Altitude Speed Heading
2026-05-08 06:26 47.46166 8.55684 1405 ft 0 kts 186°
2026-05-08 06:47 47.46168 8.55684 1405 ft 2 kts 186°
2026-05-08 06:47 47.46193 8.55688 1408 ft 4 kts 186°
2026-05-08 06:48 47.46215 8.55692 1407 ft 4 kts 199°
2026-05-08 06:48 47.46235 8.55712 1414 ft 4 kts 248°
2026-05-08 06:48 47.46238 8.55747 1406 ft 4 kts 276°
2026-05-08 06:48 47.46235 8.55785 1410 ft 2 kts 276°
2026-05-08 06:49 47.46235 8.55788 1409 ft 0 kts 276°
2026-05-08 06:54 47.46236 8.55780 1405 ft 0 kts 276°
2026-05-08 06:55 47.46237 8.55753 1414 ft 5 kts 276°
2026-05-08 06:55 47.46243 8.55672 1404 ft 10 kts 276°
2026-05-08 06:55 47.46252 8.55547 1409 ft 14 kts 276°
2026-05-08 06:55 47.46263 8.55394 1401 ft 16 kts 276°
2026-05-08 06:56 47.46276 8.55216 1397 ft 18 kts 276°
2026-05-08 06:56 47.46290 8.55018 1395 ft 20 kts 276°
2026-05-08 06:56 47.46303 8.54828 1393 ft 13 kts 276°
2026-05-08 06:56 47.46335 8.54725 1384 ft 11 kts 329°
2026-05-08 06:57 47.46407 8.54674 1385 ft 12 kts 335°
2026-05-08 06:57 47.46485 8.54620 1400 ft 13 kts 335°
2026-05-08 06:57 47.46575 8.54558 1401 ft 15 kts 335°
2026-05-08 06:57 47.46684 8.54484 1389 ft 19 kts 335°
2026-05-08 06:58 47.46823 8.54404 1384 ft 22 kts 339°
2026-05-08 06:58 47.46959 8.54310 1383 ft 21 kts 335°
2026-05-08 06:58 47.47084 8.54223 1384 ft 19 kts 335°
2026-05-08 06:58 47.47204 8.54140 1387 ft 19 kts 335°
2026-05-08 06:59 47.47321 8.54059 1397 ft 18 kts 335°
2026-05-08 06:59 47.47432 8.53983 1403 ft 17 kts 335°
2026-05-08 06:59 47.47533 8.53915 1406 ft 15 kts 335°
2026-05-08 06:59 47.47604 8.53825 1410 ft 13 kts 293°
2026-05-08 07:00 47.47595 8.53706 1410 ft 11 kts 247°
2026-05-08 07:00 47.47563 8.53619 1413 ft 6 kts 221°
2026-05-08 07:00 47.47519 8.53630 1410 ft 8 kts 156°
2026-05-08 07:00 47.47513 8.53634 1409 ft 0 kts 156°
2026-05-08 07:02 47.47497 8.53645 1405 ft 14 kts 155°
2026-05-08 07:02 47.47227 8.53831 1401 ft 70 kts 155°
2026-05-08 07:02 47.46637 8.54237 1381 ft 116 kts 155°
2026-05-08 07:03 47.45788 8.54822 1404 ft 152 kts 155°
2026-05-08 07:03 47.44762 8.55521 1641 ft 164 kts 155°
2026-05-08 07:03 47.43736 8.56237 2110 ft 162 kts 153°
2026-05-08 07:03 47.42894 8.57243 2619 ft 154 kts 116°
2026-05-08 07:04 47.42781 8.58749 3039 ft 151 kts 72°
2026-05-08 07:04 47.43437 8.59880 3302 ft 148 kts 21°
2026-05-08 07:04 47.44458 8.59851 3397 ft 156 kts 334°
2026-05-08 07:04 47.45209 8.58692 3507 ft 164 kts 291°
2026-05-08 07:05 47.45404 8.56992 3655 ft 173 kts 267°
2026-05-08 07:05 47.45203 8.55210 3881 ft 178 kts 256°
2026-05-08 07:05 47.44927 8.53445 4251 ft 175 kts 255°
2026-05-08 07:05 47.44634 8.51708 4593 ft 174 kts 254°
2026-05-08 07:06 47.44307 8.49933 4746 ft 184 kts 253°
2026-05-08 07:06 47.43879 8.48096 4922 ft 195 kts 245°
2026-05-08 07:06 47.43258 8.46242 5055 ft 208 kts 240°
2026-05-08 07:06 47.42549 8.44306 5163 ft 224 kts 241°
2026-05-08 07:07 47.41787 8.42172 5261 ft 244 kts 242°
2026-05-08 07:07 47.40968 8.39888 5439 ft 260 kts 242°
2026-05-08 07:07 47.40093 8.37461 5687 ft 274 kts 242°
2026-05-08 07:07 47.39193 8.35000 6327 ft 271 kts 241°
2026-05-08 07:08 47.38286 8.32569 6966 ft 269 kts 241°
2026-05-08 07:08 47.37251 8.30303 7542 ft 266 kts 226°
2026-05-08 07:08 47.35779 8.28677 8097 ft 266 kts 206°
2026-05-08 07:08 47.33989 8.28006 8642 ft 268 kts 184°
2026-05-08 07:09 47.32141 8.28412 9160 ft 273 kts 161°
2026-05-08 07:09 47.30493 8.29862 9549 ft 282 kts 141°
2026-05-08 07:09 47.29118 8.32008 9837 ft 292 kts 133°
2026-05-08 07:09 47.27827 8.34341 10260 ft 295 kts 131°
2026-05-08 07:10 47.26505 8.36705 10521 ft 304 kts 132°
2026-05-08 07:10 47.25010 8.38981 10720 ft 314 kts 140°
2026-05-08 07:10 47.23320 8.41105 10906 ft 325 kts 139°
2026-05-08 07:10 47.21652 8.43434 11085 ft 336 kts 137°
2026-05-08 07:11 47.19978 8.45913 11281 ft 346 kts 136°
2026-05-08 07:11 47.18278 8.48411 11444 ft 355 kts 140°
2026-05-08 07:11 47.16202 8.50496 11748 ft 358 kts 156°
2026-05-08 07:11 47.13875 8.51648 12092 ft 359 kts 168°
2026-05-08 07:12 47.11376 8.52335 12482 ft 362 kts 173°
2026-05-08 07:12 47.08905 8.52764 12861 ft 364 kts 176°
2026-05-08 07:12 47.06370 8.53084 13260 ft 366 kts 176°
2026-05-08 07:12 47.03830 8.53372 13723 ft 366 kts 176°
2026-05-08 07:13 47.01286 8.53669 14082 ft 368 kts 176°
2026-05-08 07:13 46.98720 8.53991 14433 ft 371 kts 176°
2026-05-08 07:13 46.96139 8.54336 14780 ft 373 kts 175°
2026-05-08 07:13 46.93556 8.54698 15132 ft 375 kts 175°
2026-05-08 07:14 46.90955 8.55069 15508 ft 376 kts 175°
2026-05-08 07:14 46.88348 8.55444 15890 ft 378 kts 175°
2026-05-08 07:14 46.85721 8.55823 16272 ft 379 kts 175°
2026-05-08 07:14 46.83098 8.56203 16670 ft 379 kts 175°
2026-05-08 07:15 46.80465 8.56586 17037 ft 382 kts 175°
2026-05-08 07:15 46.77818 8.56971 17383 ft 383 kts 175°
2026-05-08 07:15 46.75156 8.57355 17766 ft 386 kts 175°
2026-05-08 07:15 46.72477 8.57738 18150 ft 388 kts 175°
2026-05-08 07:16 46.69779 8.58121 18543 ft 389 kts 175°
2026-05-08 07:16 46.67075 8.58505 18888 ft 391 kts 175°
2026-05-08 07:16 46.64360 8.58892 19234 ft 393 kts 175°
2026-05-08 07:16 46.61627 8.59280 19570 ft 396 kts 176°
2026-05-08 07:17 46.58886 8.59669 19916 ft 397 kts 176°
2026-05-08 07:17 46.57018 8.59935 20152 ft 399 kts 176°
2026-05-08 07:17 46.54248 8.60327 20512 ft 401 kts 176°
2026-05-08 07:17 46.51467 8.60721 20837 ft 403 kts 176°
2026-05-08 07:18 46.48677 8.61115 21168 ft 405 kts 176°
2026-05-08 07:18 46.46007 8.61492 21453 ft 406 kts 176°
2026-05-08 07:18 46.43186 8.61890 21762 ft 408 kts 176°
2026-05-08 07:18 46.40353 8.62293 22096 ft 410 kts 177°
2026-05-08 07:19 46.37512 8.62695 22403 ft 411 kts 177°
2026-05-08 07:19 46.34658 8.63097 22701 ft 413 kts 177°
2026-05-08 07:19 46.31788 8.63501 23002 ft 415 kts 177°
2026-05-08 07:19 46.28903 8.63907 23325 ft 418 kts 177°
2026-05-08 07:20 46.26007 8.64312 23605 ft 418 kts 177°
2026-05-08 07:20 46.23120 8.64712 23887 ft 420 kts 178°
2026-05-08 07:20 46.20191 8.65122 24095 ft 422 kts 178°
2026-05-08 07:20 46.17264 8.65531 24346 ft 424 kts 178°
2026-05-08 07:21 46.14365 8.65938 24629 ft 424 kts 178°
2026-05-08 07:21 46.11390 8.66443 24872 ft 427 kts 173°
2026-05-08 07:21 46.08471 8.67384 25106 ft 430 kts 169°
2026-05-08 07:21 46.05575 8.68498 25301 ft 432 kts 168°
2026-05-08 07:22 46.02725 8.69675 25608 ft 432 kts 167°
2026-05-08 07:22 45.99788 8.70927 25875 ft 434 kts 167°
2026-05-08 07:22 45.96890 8.72175 26133 ft 435 kts 167°
2026-05-08 07:22 45.94027 8.73404 26336 ft 437 kts 167°
2026-05-08 07:23 45.91073 8.74665 26547 ft 439 kts 167°
2026-05-08 07:23 45.88138 8.75908 26813 ft 439 kts 168°
2026-05-08 07:23 45.85202 8.77146 27063 ft 441 kts 168°
2026-05-08 07:23 45.82259 8.78383 27314 ft 441 kts 168°
2026-05-08 07:24 45.79345 8.79604 27571 ft 442 kts 168°
2026-05-08 07:24 45.76407 8.80834 27812 ft 443 kts 168°
2026-05-08 07:24 45.73404 8.82090 28058 ft 444 kts 168°
2026-05-08 07:24 45.70470 8.83316 28312 ft 445 kts 168°
2026-05-08 07:25 45.67488 8.84561 28561 ft 446 kts 168°
2026-05-08 07:25 45.64506 8.85805 28796 ft 447 kts 168°
2026-05-08 07:25 45.58523 8.88298 29307 ft 448 kts 168°
2026-05-08 07:26 45.55529 8.89543 29541 ft 449 kts 168°
2026-05-08 07:26 45.52519 8.90793 29750 ft 450 kts 168°
2026-05-08 07:26 45.49509 8.92041 29967 ft 452 kts 169°
2026-05-08 07:26 45.46489 8.93293 30177 ft 453 kts 169°
2026-05-08 07:27 45.43467 8.94544 30358 ft 453 kts 169°
2026-05-08 07:27 45.40442 8.95795 30661 ft 450 kts 168°
2026-05-08 07:27 45.37458 8.97033 31143 ft 444 kts 168°
2026-05-08 07:27 45.34501 8.98256 31423 ft 443 kts 168°
2026-05-08 07:28 45.31537 8.99477 31641 ft 443 kts 169°
2026-05-08 07:28 45.28578 9.00694 31888 ft 442 kts 169°
2026-05-08 07:28 45.25568 9.01931 32144 ft 441 kts 169°
2026-05-08 07:28 45.22681 9.03116 32392 ft 440 kts 169°
2026-05-08 07:29 45.19746 9.04321 32656 ft 438 kts 169°
2026-05-08 07:29 45.16822 9.05520 32918 ft 437 kts 169°
2026-05-08 07:29 45.13898 9.06717 33155 ft 436 kts 169°
2026-05-08 07:29 45.10991 9.07906 33379 ft 435 kts 169°
2026-05-08 07:30 45.08083 9.09094 33589 ft 435 kts 169°
2026-05-08 07:30 45.05180 9.10278 33809 ft 434 kts 169°
2026-05-08 07:30 45.02285 9.11459 34030 ft 433 kts 169°
2026-05-08 07:30 44.99396 9.12636 34205 ft 432 kts 169°
2026-05-08 07:31 44.96505 9.13812 34309 ft 433 kts 169°
2026-05-08 07:31 44.93612 9.14987 34429 ft 434 kts 169°
2026-05-08 07:31 44.90710 9.16164 34535 ft 435 kts 169°
2026-05-08 07:32 44.84898 9.18520 34852 ft 433 kts 169°
2026-05-08 07:32 44.82004 9.19693 34953 ft 434 kts 169°
2026-05-08 07:32 44.79102 9.20867 35033 ft 434 kts 169°
2026-05-08 07:33 44.72966 9.23343 35042 ft 436 kts 169°
2026-05-08 07:33 44.67463 9.25560 35034 ft 434 kts 169°
2026-05-08 07:34 44.61651 9.27899 35023 ft 434 kts 169°
2026-05-08 07:34 44.55857 9.30223 35028 ft 432 kts 169°
2026-05-08 07:35 44.50079 9.32534 35024 ft 432 kts 169°
2026-05-08 07:35 44.44297 9.34842 35023 ft 432 kts 169°
2026-05-08 07:36 44.38518 9.37147 35019 ft 432 kts 169°
2026-05-08 07:36 44.32737 9.39448 35015 ft 432 kts 169°
2026-05-08 07:37 44.26954 9.41743 35008 ft 432 kts 169°
2026-05-08 07:37 44.21169 9.44036 35001 ft 432 kts 168°
2026-05-08 07:38 44.15393 9.46320 34988 ft 431 kts 169°
2026-05-08 07:38 44.09606 9.48603 35005 ft 433 kts 169°
2026-05-08 07:39 44.03800 9.50889 34996 ft 434 kts 169°
2026-05-08 07:39 43.97990 9.53173 34995 ft 434 kts 169°
2026-05-08 07:40 43.92170 9.55456 35001 ft 435 kts 169°
2026-05-08 07:40 43.86354 9.57733 35001 ft 435 kts 169°
2026-05-08 07:41 43.80531 9.60008 34993 ft 435 kts 169°
2026-05-08 07:41 43.74710 9.62278 34998 ft 434 kts 169°
2026-05-08 07:42 43.68893 9.64541 34999 ft 434 kts 169°
2026-05-08 07:42 43.63073 9.66800 34994 ft 434 kts 169°
2026-05-08 07:43 43.57255 9.69055 34992 ft 434 kts 168°
2026-05-08 07:43 43.51439 9.71304 34994 ft 434 kts 168°
2026-05-08 07:44 43.45623 9.73549 34993 ft 434 kts 168°
2026-05-08 07:44 43.39808 9.75789 34989 ft 434 kts 168°
2026-05-08 07:45 43.33987 9.78026 34994 ft 434 kts 168°
2026-05-08 07:45 43.28173 9.80247 34990 ft 433 kts 169°
2026-05-08 07:46 43.22259 9.81341 34991 ft 427 kts 181°
2026-05-08 07:46 43.16313 9.81563 34988 ft 427 kts 182°
2026-05-08 07:47 43.10372 9.81657 34987 ft 427 kts 182°
2026-05-08 07:47 43.04422 9.81754 34988 ft 427 kts 182°
2026-05-08 07:48 42.98468 9.81867 34981 ft 428 kts 182°
2026-05-08 07:48 42.92501 9.81992 34980 ft 430 kts 181°
2026-05-08 07:49 42.86522 9.82120 34979 ft 430 kts 181°
2026-05-08 07:49 42.80538 9.82246 34968 ft 430 kts 182°
2026-05-08 07:50 42.74545 9.82370 34974 ft 431 kts 182°
2026-05-08 07:50 42.68534 9.82495 34973 ft 432 kts 182°
2026-05-08 07:51 42.62530 9.82619 34971 ft 432 kts 182°
2026-05-08 07:51 42.56555 9.82743 34969 ft 433 kts 182°
2026-05-08 07:52 42.50497 9.82867 34974 ft 436 kts 182°
2026-05-08 07:52 42.44428 9.82992 34972 ft 436 kts 182°
2026-05-08 07:53 42.38360 9.83118 34971 ft 436 kts 182°
2026-05-08 07:53 42.32284 9.83242 34971 ft 436 kts 182°
2026-05-08 07:54 42.26220 9.83367 34964 ft 436 kts 182°
2026-05-08 07:54 42.20145 9.83496 34974 ft 437 kts 182°
2026-05-08 07:55 42.14059 9.83617 34975 ft 438 kts 182°
2026-05-08 07:55 42.07955 9.83739 34979 ft 439 kts 182°
2026-05-08 07:56 42.01847 9.83863 34978 ft 439 kts 182°
2026-05-08 07:56 41.95738 9.83987 34973 ft 440 kts 182°
2026-05-08 07:57 41.89570 9.84109 34977 ft 446 kts 182°
2026-05-08 07:57 41.83355 9.84235 34988 ft 446 kts 182°
2026-05-08 07:58 41.77149 9.84362 34971 ft 446 kts 183°
2026-05-08 07:58 41.70912 9.84487 34987 ft 451 kts 183°
2026-05-08 07:59 41.65644 9.84592 34984 ft 452 kts 183°
2026-05-08 07:59 41.59355 9.84719 34988 ft 452 kts 183°
2026-05-08 08:00 41.53097 9.84847 34982 ft 454 kts 184°
2026-05-08 08:00 41.46738 9.84973 34994 ft 460 kts 184°
2026-05-08 08:01 41.40314 9.85095 34993 ft 462 kts 184°
2026-05-08 08:01 41.33891 9.85226 34978 ft 461 kts 185°
2026-05-08 08:02 41.27433 9.85355 34992 ft 466 kts 186°
2026-05-08 08:02 41.20946 9.85394 34997 ft 466 kts 187°
2026-05-08 08:03 41.14471 9.85200 34994 ft 465 kts 188°
2026-05-08 08:03 41.07976 9.84991 34997 ft 469 kts 189°
2026-05-08 08:04 41.01424 9.84815 35004 ft 472 kts 189°
2026-05-08 08:04 40.94859 9.84666 34996 ft 472 kts 189°
2026-05-08 08:05 40.88282 9.84520 34998 ft 474 kts 190°
2026-05-08 08:05 40.81618 9.84364 34996 ft 477 kts 190°
2026-05-08 08:06 40.75017 9.84215 34997 ft 477 kts 190°
2026-05-08 08:06 40.68373 9.84067 34991 ft 478 kts 191°
2026-05-08 08:07 40.61710 9.83914 34996 ft 479 kts 190°
2026-05-08 08:07 40.55042 9.83762 34996 ft 479 kts 190°
2026-05-08 08:08 40.48375 9.83612 34960 ft 479 kts 191°
2026-05-08 08:08 40.41706 9.83462 34996 ft 479 kts 191°
2026-05-08 08:09 40.35035 9.83312 34990 ft 479 kts 191°
2026-05-08 08:09 40.28375 9.83163 34991 ft 478 kts 191°
2026-05-08 08:10 40.21718 9.83012 34990 ft 478 kts 191°
2026-05-08 08:10 40.15066 9.82862 34993 ft 478 kts 191°
2026-05-08 08:11 40.08413 9.82713 34991 ft 478 kts 191°
2026-05-08 08:11 40.01761 9.82564 34991 ft 478 kts 191°
2026-05-08 08:12 39.95123 9.82418 34994 ft 477 kts 191°
2026-05-08 08:12 39.88533 9.82270 34995 ft 477 kts 191°
2026-05-08 08:13 39.81898 9.82122 34976 ft 476 kts 191°
2026-05-08 08:13 39.75276 9.81976 34987 ft 475 kts 191°
2026-05-08 08:14 39.68665 9.81829 34987 ft 475 kts 191°
2026-05-08 08:14 39.62052 9.81682 34988 ft 475 kts 191°
2026-05-08 08:15 39.55445 9.81537 34994 ft 474 kts 191°
2026-05-08 08:15 39.48848 9.81392 34995 ft 474 kts 191°
2026-05-08 08:16 39.42254 9.81246 34995 ft 474 kts 191°
2026-05-08 08:16 39.35669 9.81102 34987 ft 473 kts 190°
2026-05-08 08:17 39.29097 9.80959 34997 ft 472 kts 190°
2026-05-08 08:17 39.22530 9.80815 34995 ft 472 kts 190°
2026-05-08 08:18 39.15964 9.80670 34969 ft 472 kts 190°
2026-05-08 08:18 39.09412 9.80529 34999 ft 470 kts 190°
2026-05-08 08:19 39.02876 9.80388 34991 ft 469 kts 190°
2026-05-08 08:19 38.96354 9.80245 34995 ft 469 kts 190°
2026-05-08 08:20 38.89825 9.80103 34997 ft 468 kts 190°
2026-05-08 08:20 38.83318 9.79964 34997 ft 467 kts 190°
2026-05-08 08:21 38.76816 9.79823 34995 ft 467 kts 190°